Simultaneous Nadir Overpasses (SNOs) Predictions

Prediction of SNOs between NPP and TERRA Satellite Orbit:

Table of predicted SNOs for the next 14.0 days since TLE Epoch: 6/14/2014
Index Date (NPP) Time (NPP) Lat,Lon (NPP) SZA (NPP ) Date (TERRA) Time (TERRA) Lat,Lon (TERRA) SZA (TERRA ) Distance(km) Time Diff (sec)
1 06/14/2014 06:32:22 -69.24, -99.23 134.13 06/14/2014 06:33:33 -69.16, -98.67 134.21 23.79 71
2 06/14/2014 07:23:02 68.90, 68.56 45.53 06/14/2014 07:23:03 68.89, 68.63 45.52 2.98 1
3 06/14/2014 08:13:43 -68.76,-123.94 134.61 06/14/2014 08:12:33 -68.78,-123.88 134.60 2.95 70
4 06/16/2014 22:49:14 -68.96, 16.93 134.51 06/16/2014 22:50:04 -68.94, 16.93 134.54 2.65 50
5 06/16/2014 23:39:58 68.84,-175.59 45.36 06/16/2014 23:39:31 68.83,-175.57 45.35 1.35 27
6 06/17/2014 00:30:23 -67.84, -6.97 135.65 06/17/2014 00:29:16 -67.89, -9.07 135.59 88.08 67
7 06/19/2014 14:15:43 69.74, -35.72 46.22 06/19/2014 14:16:51 69.63, -33.91 46.10 71.02 68
8 06/19/2014 15:06:11 -68.90, 132.79 134.63 06/19/2014 15:06:32 -68.92, 132.79 134.62 1.56 21
9 06/19/2014 15:56:55 68.78, -59.73 45.25 06/19/2014 15:55:59 68.80, -59.71 45.26 2.20 56
10 06/22/2014 06:32:27 69.00, 81.12 45.46 06/22/2014 06:33:30 68.97, 81.12 45.43 2.70 63
11 06/22/2014 07:23:08 -68.85,-111.36 134.70 06/22/2014 07:23:00 -68.87,-111.38 134.67 2.94 8
12 06/22/2014 08:13:44 68.30, 56.68 44.75 06/22/2014 08:12:34 68.36, 55.64 44.82 43.37 70
13 06/24/2014 22:49:24 68.95,-163.04 45.45 06/24/2014 22:49:57 68.96,-163.01 45.46 1.43 33
14 06/24/2014 23:40:05 -68.80, 4.49 134.70 06/24/2014 23:39:28 -68.81, 4.43 134.69 2.54 37
15 06/27/2014 14:15:42 -69.34, 144.89 134.07 06/27/2014 14:16:53 -69.22, 145.57 134.20 29.83 71
16 06/27/2014 15:06:20 68.91, -47.20 45.50 06/27/2014 15:06:23 68.93, -47.16 45.52 2.39 3
17 06/27/2014 15:57:01 -68.76, 120.33 134.66 06/27/2014 15:55:54 -68.78, 120.29 134.63 3.19 67




NCC Satellite Simultaneous Nadir Overpasses (SNOs) Prediction Service
